Vorticity
4 2 -4 16 5 8 11 3 10 9 -6 29 -4 -2 52 27 4 3 9 8 6 6
4 -18 21 8 6 4 6 2 1 7 1 1 7 9 -1 3 3 7 11 9 7 6
-2 25 12 8 2 2 4 6 6 5 3 4 7 0 -2 -1 3 9 11 10 8 6
14 12 15 9 5 9 7 7 6 5 5 8 8 9 5 7 9 9 10 8 10 6
3 8 15 8 8 -0 8 5 5 6 8 8 6 6 7 9 8 7 10 11 11 7
18 17 18 18 17 9 6 9 7 4 7 8 7 13 10 7 8 12 11 8 24 7
2 15 10 12 19 18 10 12 19 15 13 11 11 10 10 0 15 9 8 10 10 16
11 19 7 16 13 15 12 13 13 4 5 3 7 9 1 8 14 10 10 4 6 26
14 11 12 8 5 8 4 11 17 15 16 20 23 20 17 31 9 13 8 3 9 12
13 9 8 14 15 5 13 17 -1 9 15 14 11 11 -34 68 1 12 5 -0 6 -4
19 26 27 22 20 19 14 14 14 11 14 11 7 7 13 -4 3 1 47 33 -9 22
19 18 10 29 18 17 23 22 15 20 14 16 15 11 -1 -6 2 -3 -46 -22 -18 25
8 7 7 12 9 19 16 27 31 17 14 6 16 17 13 9 9 2 -0 18 39 3
9 6 6 4 6 9 7 16 15 25 24 13 6 11 13 15 14 -8 6 37 21 -18
Height
5681 5683 5690 5695 5698 5703 5706 5710 5710 5710 5711 5715 5715 5717 5716 5719 5723 5724 5725 5725 5725 5725
5668 5671 5678 5682 5687 5691 5695 5698 5700 5701 5703 5705 5706 5707 5707 5710 5714 5715 5716 5716 5715 5716
5658 5662 5667 5670 5676 5680 5684 5687 5687 5691 5694 5696 5698 5699 5699 5702 5704 5706 5706 5706 5706 5706
5648 5651 5656 5661 5666 5670 5674 5676 5678 5681 5683 5686 5687 5689 5690 5692 5694 5695 5696 5696 5696 5696
5639 5643 5646 5651 5656 5660 5663 5667 5668 5669 5672 5674 5676 5678 5680 5681 5683 5684 5684 5685 5684 5685
5630 5633 5637 5641 5645 5648 5651 5655 5657 5657 5660 5661 5663 5666 5669 5671 5671 5672 5672 5673 5673 5674
5623 5625 5628 5632 5634 5637 5640 5642 5644 5646 5648 5649 5651 5653 5656 5656 5658 5659 5659 5659 5661 5662
5614 5616 5618 5621 5623 5625 5628 5629 5631 5633 5635 5636 5638 5641 5644 5646 5646 5646 5647 5647 5648 5650
5604 5606 5608 5609 5612 5613 5616 5618 5620 5621 5622 5624 5626 5628 5630 5632 5633 5634 5635 5635 5636 5638
5596 5597 5598 5598 5600 5601 5602 5604 5607 5609 5610 5613 5613 5615 5618 5615 5620 5621 5622 5620 5623 5624
5589 5588 5588 5588 5589 5589 5590 5592 5594 5596 5597 5599 5602 5603 5606 5606 5609 5606 5608 5604 5608 5611
5583 5582 5581 5580 5579 5579 5579 5579 5580 5582 5584 5586 5589 5591 5593 5595 5596 5596 5595 5594 5597 5601
5578 5576 5575 5573 5572 5571 5570 5570 5570 5571 5572 5573 5575 5577 5579 5580 5581 5581 5584 5584 5585 5588
5572 5571 5570 5569 5567 5565 5564 5564 5562 5562 5562 5563 5563 5564 5566 5568 5570 5569 5570 5571 5571 5575